SES-8

Last updated on Thu Oct 30 2025 00:02:49 GMT+0000 (Coordinated Universal Time)

1 39460U 13071A 25302.52210045 -.00000260 00000+0 00000+0 0 9992 2 39460 0.0199 268.0267 0001443 262.2039 150.8585 1.00272706 42126
UTC large
Height (km)
Speed (km/s)
/
Latitude / Longitude
Inclination (degrees)
Orbital Period (minutes)
Azimuth
Elevation
Range (km)
Doppler Factor

Next 0 passes for location: London (51.5072 / 0.1276)

Sorry there are no passes over London.